KLM89A EHAM-EGCC

Flight info

Callsign KLM89A
Flight time 0h 38m
Altitude 34000
Route BERGI L60 OTBED
Aircraft B738/M-SDE2E3FGHIRWXY/LB1

Departure

Time 2026-05-04 20:20
Airport Amsterdam Airport Schiphol (EHAM)

Arrival

Time 2026-05-04 20:58
Airport Manchester Airport (EGCC)
Time Latitude Longitude Altitude Speed Heading
2026-05-04 19:39 52.30704 4.77155 -2 ft 0 kts
2026-05-04 19:41 52.30705 4.77155 -2 ft 8 kts
2026-05-04 19:41 52.30704 4.77155 -2 ft 0 kts
2026-05-04 20:10 52.30698 4.77154 -2 ft 2 kts
2026-05-04 20:10 52.30684 4.77148 -2 ft 3 kts 17°
2026-05-04 20:11 52.30672 4.77143 -2 ft 2 kts 318°
2026-05-04 20:11 52.30662 4.77158 -2 ft 3 kts 302°
2026-05-04 20:11 52.30656 4.77176 -2 ft 0 kts 302°
2026-05-04 20:11 52.30655 4.77176 -2 ft 0 kts 302°
2026-05-04 20:15 52.30657 4.77164 -2 ft 2 kts 275°
2026-05-04 20:15 52.30650 4.77115 -2 ft 7 kts 256°
2026-05-04 20:15 52.30609 4.77037 -2 ft 12 kts 186°
2026-05-04 20:16 52.30530 4.77107 -2 ft 13 kts 147°
2026-05-04 20:16 52.30475 4.77179 -2 ft 10 kts 114°
2026-05-04 20:16 52.30489 4.77280 -2 ft 9 kts 63°
2026-05-04 20:16 52.30525 4.77381 -2 ft 11 kts 53°
2026-05-04 20:17 52.30573 4.77499 -2 ft 14 kts 57°
2026-05-04 20:17 52.30634 4.77602 -2 ft 9 kts 71°
2026-05-04 20:17 52.30595 4.77668 -2 ft 9 kts 150°
2026-05-04 20:17 52.30534 4.77728 -2 ft 12 kts 144°
2026-05-04 20:18 52.30465 4.77837 -1 ft 16 kts 126°
2026-05-04 20:18 52.30380 4.77998 -1 ft 21 kts 131°
2026-05-04 20:18 52.30271 4.78200 -2 ft 25 kts 131°
2026-05-04 20:18 52.30162 4.78402 -3 ft 14 kts 136°
2026-05-04 20:19 52.30132 4.78471 -4 ft 12 kts 89°
2026-05-04 20:19 52.30173 4.78541 -4 ft 5 kts 42°
2026-05-04 20:19 52.30644 4.79215 -4 ft 127 kts 40°
2026-05-04 20:19 52.31172 4.79962 174 ft 164 kts 40°
2026-05-04 20:20 52.32000 4.81169 1476 ft 147 kts 40°
2026-05-04 20:20 52.32686 4.82144 2874 ft 124 kts 40°
2026-05-04 20:20 52.33382 4.83070 3410 ft 144 kts 28°
2026-05-04 20:20 52.34432 4.83687 3694 ft 179 kts 16°
2026-05-04 20:21 52.35788 4.83979 4025 ft 212 kts
2026-05-04 20:21 52.37322 4.84070 4262 ft 245 kts
2026-05-04 20:21 52.40959 4.84329 5840 ft 267 kts
2026-05-04 20:22 52.42818 4.84476 6778 ft 273 kts
2026-05-04 20:22 52.44741 4.84630 7675 ft 278 kts
2026-05-04 20:22 52.46691 4.84787 8597 ft 284 kts
2026-05-04 20:22 52.48683 4.84949 9477 ft 287 kts
2026-05-04 20:23 52.50702 4.85121 10150 ft 293 kts
2026-05-04 20:23 52.52768 4.85097 10369 ft 311 kts 347°
2026-05-04 20:23 52.54741 4.83565 10601 ft 320 kts 316°
2026-05-04 20:23 52.56169 4.80730 11061 ft 325 kts 304°
2026-05-04 20:24 52.57468 4.77661 11662 ft 327 kts 304°
2026-05-04 20:24 52.58755 4.74554 12398 ft 331 kts 303°
2026-05-04 20:24 52.60056 4.71422 13371 ft 331 kts 305°
2026-05-04 20:24 52.61367 4.68288 14246 ft 333 kts 302°
2026-05-04 20:25 52.62600 4.65094 15001 ft 337 kts 302°
2026-05-04 20:25 52.63917 4.61894 15616 ft 338 kts 304°
2026-05-04 20:25 52.65294 4.58709 15985 ft 345 kts 304°
2026-05-04 20:25 52.66704 4.55445 16606 ft 351 kts 304°
2026-05-04 20:26 52.68113 4.52145 17469 ft 351 kts 303°
2026-05-04 20:26 52.69500 4.48805 18229 ft 356 kts 302°
2026-05-04 20:26 52.70894 4.45450 18840 ft 361 kts 303°
2026-05-04 20:26 52.72331 4.42028 19512 ft 364 kts 303°
2026-05-04 20:27 52.73777 4.38581 20204 ft 366 kts 303°
2026-05-04 20:27 52.75135 4.35040 20878 ft 366 kts 293°
2026-05-04 20:27 52.76029 4.31091 21572 ft 366 kts 287°
2026-05-04 20:27 52.76810 4.27120 22228 ft 369 kts 286°
2026-05-04 20:28 52.77591 4.23057 22868 ft 371 kts 286°
2026-05-04 20:28 52.78378 4.18979 23511 ft 374 kts 286°
2026-05-04 20:28 52.79183 4.14862 24045 ft 377 kts 286°
2026-05-04 20:28 52.80002 4.10708 24516 ft 381 kts 286°
2026-05-04 20:29 52.80823 4.06569 24962 ft 385 kts 286°
2026-05-04 20:29 52.81677 4.02282 25437 ft 389 kts 285°
2026-05-04 20:29 52.82518 3.98063 25922 ft 391 kts 285°
2026-05-04 20:29 52.83372 3.93773 26385 ft 395 kts 285°
2026-05-04 20:30 52.84236 3.89428 26809 ft 398 kts 285°
2026-05-04 20:30 52.85104 3.85054 27232 ft 402 kts 284°
2026-05-04 20:30 52.85969 3.80684 27649 ft 405 kts 284°
2026-05-04 20:30 52.86848 3.76229 28069 ft 408 kts 284°
2026-05-04 20:31 52.87731 3.71749 28513 ft 410 kts 284°
2026-05-04 20:31 52.88618 3.67241 29096 ft 409 kts 284°
2026-05-04 20:31 52.89495 3.62775 29711 ft 407 kts 283°
2026-05-04 20:31 52.90372 3.58312 30232 ft 407 kts 284°
2026-05-04 20:32 52.91256 3.53848 30689 ft 407 kts 284°
2026-05-04 20:32 52.92118 3.49447 31197 ft 404 kts 284°
2026-05-04 20:32 52.92976 3.45033 31750 ft 401 kts 285°
2026-05-04 20:32 52.93827 3.40635 32197 ft 400 kts 285°
2026-05-04 20:33 52.94675 3.36228 32601 ft 400 kts 285°
2026-05-04 20:33 52.95521 3.31825 33033 ft 400 kts 285°
2026-05-04 20:33 52.96363 3.27444 33502 ft 398 kts 285°
2026-05-04 20:33 52.97206 3.23057 33927 ft 398 kts 286°
2026-05-04 20:34 52.98036 3.18724 34035 ft 403 kts 286°
2026-05-04 20:34 52.98886 3.14275 34045 ft 405 kts 286°
2026-05-04 20:34 53.00574 3.05421 34027 ft 397 kts 286°
2026-05-04 20:35 53.02231 2.96663 34062 ft 398 kts 286°
2026-05-04 20:35 53.03880 2.87886 34059 ft 402 kts 286°
2026-05-04 20:36 53.05549 2.78964 34056 ft 404 kts 286°
2026-05-04 20:36 53.07209 2.70035 34038 ft 406 kts 286°
2026-05-04 20:37 53.08876 2.61031 34050 ft 406 kts 286°
2026-05-04 20:37 53.10519 2.52138 34046 ft 403 kts 286°
2026-05-04 20:38 53.11608 2.43029 34061 ft 400 kts 277°
2026-05-04 20:38 53.12321 2.33832 34058 ft 399 kts 276°
2026-05-04 20:39 53.13024 2.24679 34060 ft 398 kts 277°
2026-05-04 20:39 53.13739 2.15595 34057 ft 398 kts 277°
2026-05-04 20:40 53.14467 2.06422 34052 ft 398 kts 277°
2026-05-04 20:40 53.15191 1.97258 34051 ft 400 kts 277°
2026-05-04 20:41 53.18536 1.54948 34105 ft 405 kts 277°
2026-05-04 20:41 53.23923 0.79208 34091 ft 415 kts 277°
2026-05-04 20:42 53.26377 0.41908 32139 ft 402 kts 277°
2026-05-04 20:42 53.28689 0.05949 29267 ft 378 kts 277°
2026-05-04 20:42 53.35343 -0.25677 26123 ft 364 kts 304°
2026-05-04 20:42 53.45662 -0.52324 23013 ft 360 kts 297°
2026-05-04 20:43 53.46686 -0.56147 22549 ft 357 kts 291°
2026-05-04 20:43 53.47579 -0.60034 22135 ft 354 kts 291°
2026-05-04 20:43 53.48488 -0.63865 21730 ft 351 kts 292°
2026-05-04 20:43 53.49435 -0.67609 21343 ft 348 kts 293°
2026-05-04 20:44 53.50422 -0.71313 20950 ft 345 kts 294°
2026-05-04 20:44 53.51410 -0.74903 20573 ft 342 kts 294°
2026-05-04 20:44 53.52422 -0.78519 20203 ft 339 kts 294°
2026-05-04 20:44 53.53429 -0.82090 19829 ft 336 kts 294°
2026-05-04 20:45 53.54430 -0.85634 19449 ft 334 kts 294°
2026-05-04 20:45 53.55423 -0.89153 19077 ft 331 kts 294°
2026-05-04 20:45 53.56396 -0.92607 18715 ft 329 kts 294°
2026-05-04 20:45 53.57375 -0.96079 18348 ft 327 kts 294°
2026-05-04 20:46 53.58346 -0.99531 17940 ft 325 kts 294°
2026-05-04 20:46 53.59312 -1.02965 17543 ft 322 kts 294°
2026-05-04 20:46 53.60196 -1.06411 17154 ft 319 kts 284°
2026-05-04 20:46 53.60491 -1.10058 16739 ft 316 kts 268°
2026-05-04 20:47 53.60208 -1.13671 16282 ft 316 kts 259°
2026-05-04 20:47 53.59754 -1.17306 15773 ft 318 kts 258°
2026-05-04 20:47 53.59263 -1.20958 15246 ft 320 kts 257°
2026-05-04 20:47 53.58762 -1.24637 14720 ft 323 kts 257°
2026-05-04 20:48 53.58261 -1.28333 14213 ft 324 kts 257°
2026-05-04 20:48 53.57763 -1.32047 13685 ft 326 kts 258°
2026-05-04 20:48 53.57275 -1.35707 13130 ft 327 kts 258°
2026-05-04 20:48 53.56771 -1.39512 12588 ft 327 kts 258°
2026-05-04 20:49 53.56281 -1.43203 12071 ft 327 kts 258°
2026-05-04 20:49 53.55787 -1.46929 11563 ft 326 kts 258°
2026-05-04 20:49 53.55292 -1.50661 11053 ft 325 kts 258°
2026-05-04 20:49 53.54798 -1.54377 10552 ft 325 kts 258°
2026-05-04 20:50 53.54305 -1.58082 10047 ft 324 kts 258°
2026-05-04 20:50 53.53824 -1.61678 9849 ft 308 kts 258°
2026-05-04 20:50 53.53366 -1.65099 9787 ft 285 kts 258°
2026-05-04 20:50 53.52948 -1.68225 9640 ft 269 kts 258°
2026-05-04 20:51 53.52542 -1.71253 9233 ft 263 kts 258°
2026-05-04 20:51 53.52140 -1.74245 8692 ft 262 kts 258°
2026-05-04 20:51 53.51737 -1.77234 8209 ft 260 kts 258°
2026-05-04 20:51 53.51343 -1.80152 7937 ft 251 kts 258°
2026-05-04 20:52 53.50962 -1.82959 7727 ft 240 kts 258°
2026-05-04 20:52 53.50594 -1.85665 7049 ft 245 kts 258°
2026-05-04 20:52 53.50208 -1.88507 6221 ft 253 kts 258°
2026-05-04 20:52 53.49815 -1.91398 5526 ft 253 kts 258°
2026-05-04 20:53 53.49425 -1.94254 4928 ft 248 kts 258°
2026-05-04 20:53 53.49048 -1.97011 4394 ft 234 kts 258°
2026-05-04 20:53 53.48661 -1.99603 3860 ft 225 kts 251°
2026-05-04 20:53 53.47852 -2.01786 3364 ft 222 kts 233°
2026-05-04 20:54 53.46904 -2.03772 3032 ft 210 kts 233°
2026-05-04 20:54 53.46031 -2.05590 2980 ft 192 kts 233°
2026-05-04 20:54 53.45202 -2.07299 2988 ft 186 kts 233°
2026-05-04 20:54 53.44372 -2.09007 2853 ft 191 kts 233°
2026-05-04 20:55 53.43533 -2.10729 2618 ft 193 kts 233°
2026-05-04 20:55 53.42686 -2.12467 2374 ft 192 kts 233°
2026-05-04 20:55 53.41843 -2.14198 2101 ft 190 kts 233°
2026-05-04 20:55 53.41007 -2.15910 1749 ft 186 kts 234°
2026-05-04 20:56 53.40238 -2.17474 1712 ft 166 kts 234°
2026-05-04 20:56 53.39537 -2.18910 1508 ft 150 kts 234°
2026-05-04 20:56 53.38925 -2.20192 1231 ft 137 kts 235°
2026-05-04 20:56 53.38333 -2.21411 985 ft 136 kts 234°
2026-05-04 20:57 53.37744 -2.22617 801 ft 132 kts 233°
2026-05-04 20:57 53.37156 -2.23828 626 ft 135 kts 233°
2026-05-04 20:57 53.36564 -2.25048 419 ft 134 kts 233°
2026-05-04 20:57 53.35978 -2.26243 269 ft 130 kts 233°
2026-05-04 20:58 53.35474 -2.27291 248 ft 95 kts 232°
2026-05-04 20:58 53.35295 -2.27705 238 ft 34 kts 245°
2026-05-04 20:58 53.35237 -2.28078 230 ft 33 kts 260°
2026-05-04 20:58 53.35284 -2.28190 231 ft 13 kts 10°
2026-05-04 20:59 53.35350 -2.28093 236 ft 13 kts 45°
2026-05-04 20:59 53.35412 -2.27994 238 ft 12 kts 43°
2026-05-04 20:59 53.35473 -2.27895 238 ft 12 kts 44°
2026-05-04 20:59 53.35540 -2.27783 237 ft 17 kts 44°
2026-05-04 21:00 53.35636 -2.27629 244 ft 21 kts 45°
2026-05-04 21:00 53.35726 -2.27447 254 ft 19 kts 50°
2026-05-04 21:00 53.35787 -2.27329 254 ft 12 kts 44°
2026-05-04 21:00 53.35830 -2.27346 254 ft 5 kts 298°
2026-05-04 21:01 53.35834 -2.27366 254 ft 2 kts 287°
2026-05-04 21:01 53.35838 -2.27386 254 ft 2 kts 286°
2026-05-04 21:01 53.35841 -2.27404 254 ft 1 kts 286°
2026-05-04 21:01 53.35841 -2.27408 254 ft 0 kts 286°